This demonstration page uses our WeatherBlox Daily Observations layout. Learn more.

Left ArrowRight Arrow

34.02893, -84.19858

Hourly Observations for October 9, 2019

Temp ( °F °C ) Dew Point ( °F °C ) Humidity (%) Winds ( mph kmh ) Pressure ( in mb ) Visibility ( mi km ) Precip ( " mm )
12:53 am 00:53 Cloudy 67 19.4 62 16.7 84 84 VRB 7 11 30.05 1018 10 16 0.00 0.00
1:53 am 01:53 Cloudy 66 18.9 61 16.1 84 84 VRB 5 7 30.05 1018 10 16 0.00 0.00
2:53 am 02:53 Cloudy 65 18.3 60 15.6 84 84 E 6 9 30.05 1018 10 16 0.00 0.00
3:53 am 03:53 Cloudy 65 18.3 59 15 81 81 VRB 5 7 30.04 1017 10 16 0.00 0.00
4:53 am 04:53 Cloudy 64 17.8 58 14.4 81 81 E 8 13 30.05 1018 10 16 0.00 0.00
5:08 am 05:08 Cloudy 64 17.8 58 14.4 81 81 VRB 7 11 30.07 1018 10 16 0.00 0.00
5:53 am 05:53 Cloudy 64 17.8 58 14.4 81 81 VRB 7 11 30.07 1018 10 16 0.00 0.00
6:53 am 06:53 Cloudy 63 17.2 58 14.4 84 84 VRB 5 7 30.09 1019 10 16 0.00 0.00
7:53 am 07:53 Cloudy 63 17.2 59 15 87 87 E 5 7 30.10 1019 10 16 0.00 0.00
8:29 am 08:29 Cloudy 63 17.2 58 14.4 84 84 VRB 5 7 30.13 1020 10 16 0.00 0.00
8:53 am 08:53 Cloudy 63 17.2 59 15 87 87 ENE 8 13 30.12 1020 10 16 0.00 0.00
9:53 am 09:53 Cloudy 63 17.2 59 15 87 87 VRB 6 9 30.14 1021 10 16 0.00 0.00
10:44 am 10:44 Cloudy 64 17.8 59 15 84 84 E 6 9 30.16 1021 10 16 0.00 0.00
10:53 am 10:53 Cloudy 64 17.8 59 15 84 84 VRB 6 9 30.15 1021 10 16 0.00 0.00
11:53 am 11:53 Cloudy 65 18.3 59 15 81 81 VRB 5 7 30.16 1021 10 16 0.00 0.00
12:51 pm 12:51 Cloudy 68 20 59 15 73 73 VRB 5 7 30.14 1021 10 16 0.00 0.00
12:53 pm 12:53 Cloudy 69 20.6 59 15 70 70 VRB 6 9 30.14 1021 10 16 0.00 0.00
1:53 pm 13:53 Cloudy 69 20.6 59 15 70 70 VRB 5 7 30.12 1020 10 16 0.00 0.00
2:53 pm 14:53 Partly Cloudy 71 21.7 59 15 66 66 VRB 6 9 30.10 1019 10 16 0.00 0.00
3:03 pm 15:03 Mostly Cloudy 71 21.7 59 15 66 66 VRB 5 7 30.10 1019 10 16 0.00 0.00
3:24 pm 15:24 Partly Cloudy 71 21.7 59 15 66 66 VRB 3 6 30.09 1019 10 16 0.00 0.00
3:53 pm 15:53 Mostly Sunny 72 22.2 59 15 64 64 VRB 3 6 30.09 1019 10 16 0.00 0.00
4:53 pm 16:53 Mostly Sunny 73 22.8 59 15 62 62 Calm 30.07 1018 10 16 0.00 0.00
5:53 pm 17:53 Sunny 72 22.2 59 15 64 64 NNE 7 11 30.06 1018 10 16 0.00 0.00
6:53 pm 18:53 Sunny 69 20.6 59 15 70 70 VRB 5 7 30.08 1019 10 16 0.00 0.00
7:53 pm 19:53 Clear 67 19.4 59 15 76 76 VRB 3 6 30.09 1019 10 16 0.00 0.00
8:53 pm 20:53 Clear 66 18.9 59 15 78 78 E 3 6 30.09 1019 10 16 0.00 0.00
9:53 pm 21:53 Clear 64 17.8 59 15 84 84 Calm 30.11 1020 10 16 0.00 0.00
10:53 pm 22:53 Partly Cloudy 64 17.8 59 15 84 84 Calm 30.12 1020 10 16 0.00 0.00
11:53 pm 23:53 Clear 63 17.2 59 15 87 87 VRB 3 6 30.13 1020 10 16 0.00 0.00

Powered by AerisWeather